Погода в Санта-Кларе

США     37°21′09″N   121°58′05″W
темп.,
°C
ветер,
м/с
пор.,
м/с
влажн.,
%
обл.,
%
осадки,
мм/ч
давл.,
гПа
погр.,
м
26 февраля, пт
пт2601:00+8з11710 0.0 102335
04:00+7сз23850 0.0 102285
07:00+6зсз11840 0.0 102268
10:00+13с22500 0.0 1023480
13:00+16ссз45370 0.0 1022926
16:00+15ссз57450 0.0 1019867
19:00+8зсз36760 0.0 1020252
22:00+7зсз24800 0.0 1020185
27 февраля, сб
сб2701:00+5зсз12810 0.0 1020142
04:00+5ссз24750 0.0 1019206
07:00+5сз36789 0.0 1019211
10:00+11ссз46435 0.0 1020556
13:00+15с511260 0.0 10191295
16:00+15ссз69280 0.0 10181301
19:00+10сз38620 0.0 1019340
22:00+9сз48630 0.0 1020290
28 февраля, вс
вс2801:00+8ссз37590 0.0 1020254
04:00+7ссз23610 0.0 102099
07:00+6ссз125736 0.0 102095
10:00+13с223532 0.0 1021367
13:00+18ссв11277 0.0 1020750
16:00+18всв12314 0.0 10191007
19:00+11зюз11530 0.0 102023
22:00+9ю22500 0.0 102049
1 марта, пн
пн101:00+8ююз22510 0.0 101951
04:00+7ю23610 0.0 101965
07:00+7ю23610 0.0 101978
10:00+15ю37310 0.0 1019933
13:00+18ю59230 0.0 10171425
16:00+17ююз34270 0.0 1015968
19:00+11ююз233587 0.0 101578
22:00+9юв013978 0.0 101522
2 марта, вт
вт201:00+8ю01450 0.0 101324
04:00+7сз01480 0.0 101322
07:00+7с015190 0.0 101222
10:00+13ссв114095 0.0 1013311
13:00+18ссв1226100 0.0 1011934
16:00+17сз3333100 0.0 10101097
19:00+9з2362100 0.0 1010146
22:00+8з126782 0.0 101193